User: anonymous   Login
Location: Muenchen
(48.1800°N, 11.5800°E)
Time: 17:15:28
(UTC+02:00)
Language:

Iridium 37 - Orbit

View from above orbital plane
View from above orbital plane
View from above satellite
View from above satellite

Ground track
Ground track

The orbit data is extracted from the following two-line orbital elements,

1 24968U 97056D   16272.54766281 -.00000013  00000-0 -11680-4 0  9999
2 24968  86.3936  68.2534 0001917  88.9067 271.2348 14.34213343995031
Epoch (UTC): 28 September 2016 13:08:38
Eccentricity: 0.0001917
inclination: 86.3936°
perigee height: 776 km
apogee height: 779 km
right ascension of ascending node: 68.2534°
argument of perigee: 88.9067°
revolutions per day: 14.34213343
mean anomaly at epoch: 271.2348°
orbit number at epoch: 99503

The dashed part of the orbit path shows where the satellite is in the earth's shadow,  

DLR